DW1035 Weather Reports


time (UTC)temp
F
wind
direction
speed
knots
gust
knots
rain 1hr
in
rain 24hr
in
rain mn
in
humidity
%
barometer
mb
20260508020505 50 0 0.0 0.0 0.00 0.28 0.00 53 1004.2
20260508020004 49 0 0.0 0.0 0.00 0.28 0.00 55 1004.1
20260508014504 49 0 0.0 0.0 0.00 0.28 0.00 60 1003.8
20260508014004 50 0 0.0 0.0 0.00 0.28 0.00 58 1003.7
20260508013504 50 0 0.0 0.0 0.00 0.28 0.00 56 1003.6
20260508013005 50 0 0.0 0.0 0.00 0.28 0.00 53 1003.5
20260508011504 50 0 0.0 0.0 0.00 0.28 0.00 52 1003.4
20260508011005 50 0 0.0 0.0 0.00 0.28 0.00 54 1003.4
20260508010504 50 0 0.0 0.0 0.00 0.28 0.00 54 1003.3
20260508010004 51 0 0.0 0.0 0.00 0.28 0.00 54 1003.3
20260508004504 52 0 0.0 0.0 0.00 0.28 0.00 51 1003.1
20260508003005 54 0 0.0 0.0 0.00 0.28 0.00 46 1003.0
20260508001504 55 0 0.0 0.0 0.00 0.28 0.00 42 1002.6
20260508001004 56 0 0.0 0.0 0.00 0.28 0.00 42 1002.6
20260508000504 56 0 0.0 0.0 0.00 0.28 0.00 41 1002.5
20260508000004 56 0 0.0 0.0 0.00 0.29 0.00 41 1002.5
20260507234504 57 0 0.0 0.0 0.00 0.29 0.00 40 1002.4
20260507234004 57 0 0.0 0.0 0.00 0.29 0.00 40 1002.4
20260507233504 57 0 0.0 0.0 0.00 0.29 0.00 38 1002.4
20260507233004 58 0 0.0 0.0 0.00 0.29 0.00 39 1002.4
20260507231504 59 0 0.0 0.0 0.00 0.29 0.00 39 1002.3
20260507231004 59 0 0.0 0.0 0.00 0.29 0.00 37 1002.2
20260507230503 59 0 0.0 0.0 0.00 0.29 0.00 37 1002.2
20260507230010 59 0 0.0 0.0 0.00 0.29 0.00 37 1002.1
20260507224010 60 0 0.0 0.0 0.00 0.29 0.00 35 1001.8
20260507223510 61 0 0.0 0.0 0.00 0.29 0.00 35 1001.8
20260507223010 61 0 0.0 0.0 0.00 0.29 0.00 35 1001.7
20260507221510 62 0 0.0 0.0 0.00 0.32 0.00 35 1001.6
20260507221011 62 0 0.0 0.0 0.00 0.32 0.00 35 1001.6
20260507220510 62 0 0.0 0.0 0.00 0.34 0.00 36 1001.6
20260507220010 62 0 0.0 0.0 0.00 0.34 0.00 36 1001.5
20260507213509 62 0 0.0 0.0 0.00 0.36 0.00 37 1001.6
20260507213009 62 0 0.0 0.0 0.00 0.37 0.00 37 1001.6
20260507211509 63 0 0.0 0.0 0.00 0.40 0.00 36 1001.6
20260507211010 63 0 0.0 0.0 0.00 0.40 0.00 37 1001.6
20260507210509 63 0 0.0 0.0 0.00 0.42 0.00 37 1001.5
20260507210010 63 0 0.0 0.0 0.00 0.42 0.00 36 1001.5
20260507204510 63 0 0.0 0.0 0.00 0.44 0.00 38 1001.3
20260507204009 63 0 0.0 0.0 0.00 0.45 0.00 37 1001.5
20260507203510 63 0 0.0 0.0 0.00 0.45 0.00 37 1001.2
20260507203010 63 0 0.0 0.0 0.00 0.46 0.00 36 1001.3
20260507201509 63 0 0.0 0.0 0.00 0.49 0.00 36 1001.4
20260507201009 63 0 0.0 0.0 0.00 0.50 0.00 36 1001.5
20260507200510 63 0 0.0 0.0 0.00 0.50 0.00 36 1001.4
20260507200009 63 0 0.0 0.0 0.00 0.50 0.00 35 1001.4
20260507194509 63 0 0.0 0.0 0.00 0.50 0.00 35 1001.6
20260507194009 63 0 0.0 0.0 0.00 0.52 0.00 35 1001.5
20260507193509 62 0 0.0 0.0 0.00 0.52 0.00 36 1001.6
20260507193009 63 0 0.0 0.0 0.00 0.53 0.00 37 1001.7
20260507191509 65 0 0.0 0.0 0.00 0.54 0.00 36 1001.8
20260507191009 65 0 0.0 0.0 0.00 0.55 0.00 37 1001.8
20260507190509 65 0 0.0 0.0 0.00 0.57 0.00 35 1001.8
20260507190008 64 0 0.0 0.0 0.00 0.57 0.00 36 1001.8
20260507184509 63 0 0.0 0.0 0.00 0.58 0.00 38 1001.9
20260507184009 64 0 0.0 0.0 0.00 0.58 0.00 39 1001.9
20260507183009 63 0 0.0 0.0 0.00 0.59 0.00 38 1001.8
20260507181009 63 0 0.0 0.0 0.00 0.59 0.00 42 1001.9
20260507180509 62 0 0.0 0.0 0.00 0.59 0.00 42 1002.0
20260507180009 63 0 0.0 0.0 0.00 0.59 0.00 44 1001.9
20260507174509 62 0 0.0 0.0 0.00 0.59 0.00 51 1002.1
20260507174008 62 0 0.0 0.0 0.00 0.59 0.00 50 1002.1
20260507173509 61 0 0.0 0.0 0.00 0.59 0.00 52 1002.1
20260507173009 61 0 0.0 0.0 0.00 0.59 0.00 52 1002.1
20260507171508 63 0 0.0 0.0 0.00 0.59 0.00 48 1002.3
20260507171009 62 0 0.0 0.0 0.00 0.59 0.00 49 1002.3
20260507170509 62 0 0.0 0.0 0.00 0.59 0.00 51 1002.5
20260507170008 62 0 0.0 0.0 0.00 0.59 0.00 49 1002.5
20260507164509 62 0 0.0 0.0 0.00 0.59 0.00 49 1002.4
20260507163508 60 0 0.0 0.0 0.00 0.59 0.00 52 1002.6
20260507163009 60 0 0.0 0.0 0.00 0.59 0.00 54 1002.7
20260507161008 61 0 0.0 0.0 0.00 0.59 0.00 53 1002.6
20260507160008 63 0 0.0 0.0 0.00 0.59 0.00 48 1002.8
20260507154507 61 0 0.0 0.0 0.00 0.59 0.00 53 1003.1
20260507153508 63 0 0.0 0.0 0.00 0.59 0.00 48 1003.0
20260507153008 63 0 0.0 0.0 0.00 0.59 0.00 47 1003.1
20260507151507 62 0 0.0 0.0 0.00 0.59 0.00 51 1003.2
20260507151008 62 0 0.0 0.0 0.00 0.59 0.00 51 1003.2
20260507150508 62 0 0.0 0.0 0.00 0.59 0.00 51 1003.2
20260507150008 62 0 0.0 0.0 0.00 0.59 0.00 51 1003.2
20260507144508 62 0 0.0 0.0 0.00 0.59 0.00 49 1003.1
20260507144008 62 0 0.0 0.0 0.00 0.59 0.00 50 1003.1
20260507143508 61 0 0.0 0.0 0.00 0.59 0.00 50 1003.1
20260507141507 60 0 0.0 0.0 0.00 0.59 0.00 57 1003.2
20260507141008 60 0 0.0 0.0 0.00 0.59 0.00 54 1003.2
20260507140509 60 0 0.0 0.0 0.00 0.59 0.00 56 1003.3
20260507140008 59 0 0.0 0.0 0.00 0.59 0.00 60 1003.4
20260507134508 58 0 0.0 0.0 0.00 0.59 0.00 59 1003.6
20260507133508 58 0 0.0 0.0 0.00 0.59 0.00 59 1003.7
20260507133008 58 0 0.0 0.0 0.00 0.59 0.00 65 1003.7
20260507131507 56 0 0.0 0.0 0.00 0.59 0.00 66 1003.8
20260507131008 56 0 0.0 0.0 0.00 0.59 0.00 69 1003.8
20260507130507 56 0 0.0 0.0 0.00 0.59 0.00 69 1003.9
20260507130007 55 0 0.0 0.0 0.00 0.59 0.00 69 1004.0
20260507123507 54 0 0.0 0.0 0.00 0.59 0.00 72 1004.0
20260507123007 53 0 0.0 0.0 0.00 0.59 0.00 73 1004.0
20260507121507 52 0 0.0 0.0 0.00 0.59 0.00 79 1004.1
20260507121008 51 0 0.0 0.0 0.00 0.59 0.00 78 1004.0
20260507120507 50 0 0.0 0.0 0.00 0.59 0.00 87 1003.9
20260507120007 50 0 0.0 0.0 0.00 0.59 0.00 87 1004.0
20260507114507 49 0 0.0 0.0 0.00 0.59 0.00 91 1004.0
20260507114008 49 0 0.0 0.0 0.00 0.59 0.00 91 1004.1
20260507113507 49 0 0.0 0.0 0.00 0.59 0.00 93 1004.2
20260507111507 48 0 0.0 0.0 0.00 0.59 0.00 95 1003.9
20260507111007 48 0 0.0 0.0 0.00 0.59 0.00 96 1003.9
20260507110507 48 0 0.0 0.0 0.00 0.59 0.00 96 1003.9
20260507110007 48 0 0.0 0.0 0.00 0.59 0.00 95 1004.0
20260507104507 48 0 0.0 0.0 0.00 0.59 0.00 97 1004.1
20260507104007 48 0 0.0 0.0 0.00 0.59 0.00 96 1003.9
20260507103507 48 0 0.0 0.0 0.00 0.59 0.00 96 1003.9
20260507103008 48 0 0.0 0.0 0.00 0.59 0.00 97 1003.8
20260507101507 48 0 0.0 0.0 0.00 0.59 0.00 97 1004.0
20260507101006 48 0 0.0 0.0 0.00 0.59 0.00 97 1004.0
20260507100507 48 0 0.0 0.0 0.00 0.59 0.00 97 1004.1
20260507100007 48 0 0.0 0.0 0.00 0.59 0.00 98 1004.1
20260507094506 48 0 0.0 0.0 0.00 0.59 0.00 98 1004.0
20260507094006 48 0 0.0 0.0 0.00 0.59 0.00 98 1004.1
20260507093507 48 0 0.0 0.0 0.00 0.59 0.00 97 1004.2
20260507093007 48 0 0.0 0.0 0.00 0.59 0.00 98 1003.6
20260507091507 48 0 0.0 0.0 0.00 0.59 0.00 96 1003.9
20260507091007 48 0 0.0 0.0 0.00 0.59 0.00 96 1003.6
20260507090507 48 0 0.0 0.0 0.00 0.59 0.00 95 1003.4
20260507090007 49 0 0.0 0.0 0.00 0.59 0.00 95 1003.3
20260507084006 49 0 0.0 0.0 0.00 0.59 0.00 92 1003.2
20260507083507 49 0 0.0 0.0 0.00 0.58 0.00 92 1003.0
20260507081507 49 0 0.0 0.0 0.00 0.58 0.00 91 1003.3
20260507081006 50 0 0.0 0.0 0.00 0.58 0.00 90 1003.2
20260507080506 50 0 0.0 0.0 0.00 0.58 0.00 90 1003.1
20260507080006 50 0 0.0 0.0 0.00 0.58 0.00 91 1003.1
20260507074506 50 0 0.0 0.0 0.00 0.58 0.00 92 1003.0
20260507074006 50 0 0.0 0.0 0.00 0.58 0.00 92 1002.8
20260507073506 50 0 0.0 0.0 0.00 0.58 0.00 93 1002.6
20260507073006 50 0 0.0 0.0 0.00 0.58 0.00 93 1002.9
20260507071506 50 0 0.0 0.0 0.00 0.58 0.00 92 1003.0
20260507071006 50 0 0.0 0.0 0.00 0.58 0.00 92 1002.9
20260507070506 50 0 0.0 0.0 0.00 0.58 0.00 91 1002.6
20260507070010 51 0 0.0 0.0 0.00 0.58 0.00 92 1002.2
20260507064506 51 0 0.0 0.0 0.00 0.58 0.00 92 1002.4
20260507064006 51 0 0.0 0.0 0.00 0.58 0.00 92 1002.2
20260507063505 51 0 0.0 0.0 0.00 0.58 0.00 93 1002.4
20260507063007 51 0 0.0 0.0 0.00 0.58 0.00 93 1002.5
20260507061505 51 0 0.0 0.0 0.00 0.58 0.00 93 1002.5
20260507061005 51 0 0.0 0.0 0.00 0.58 0.00 94 1002.4
20260507060006 51 0 0.0 0.0 0.00 0.58 0.00 93 1002.4
20260507054506 52 0 0.0 0.0 0.00 0.58 0.00 95 1002.4
20260507054006 52 0 0.0 0.0 0.00 0.58 0.00 95 1002.4
20260507053505 52 0 0.0 0.0 0.00 0.58 0.00 94 1002.1
20260507053006 52 0 0.0 0.0 0.00 0.58 0.00 94 1001.8
20260507051505 53 0 0.0 0.0 0.00 0.58 0.00 96 1002.2
20260507051006 53 0 0.0 0.0 0.00 0.58 0.00 95 1002.2
20260507050505 53 0 0.0 0.0 0.00 0.58 0.00 96 1002.2
20260507050006 53 0 0.0 0.0 0.00 0.58 0.00 96 1002.1
20260507044505 54 0 0.0 0.0 0.27 0.58 0.00 97 1002.0
20260507044006 54 0 0.0 0.0 0.27 0.58 0.00 98 1002.0
20260507043505 54 0 0.0 0.0 0.27 0.58 0.00 98 1002.0
20260507043005 55 0 0.0 0.0 0.27 0.58 0.00 98 1001.9
20260507041506 55 0 0.0 0.0 0.27 0.58 0.00 98 1001.5
20260507040505 56 0 0.0 0.0 0.27 0.58 0.00 99 1001.5
20260507040005 56 0 0.0 0.0 0.00 0.32 0.00 99 1001.6
20260507034505 56 0 0.0 0.0 0.00 0.32 0.27 99 1001.7
20260507034005 55 0 0.0 0.0 0.00 0.32 0.27 99 1001.9
20260507033505 54 0 0.0 0.0 0.00 0.32 0.27 99 1001.8
20260507033005 53 0 0.0 0.0 0.00 0.32 0.27 99 1001.7
20260507031005 52 0 0.0 0.0 0.00 0.32 0.27 99 1001.2
20260507030505 52 0 0.0 0.0 0.00 0.31 0.27 99 1001.1
20260507030005 52 0 0.0 0.0 0.00 0.31 0.27 99 1001.1
20260507024505 51 0 0.0 0.0 0.00 0.31 0.27 99 1001.3
20260507024004 52 0 0.0 0.0 0.00 0.31 0.27 99 1001.3
20260507023505 52 0 0.0 0.0 0.00 0.31 0.27 99 1001.3
20260507023005 52 0 0.0 0.0 0.00 0.31 0.27 99 1001.4
20260507021505 52 0 0.0 0.0 0.00 0.31 0.27 99 1001.5
20260507021005 52 0 0.0 0.0 0.00 0.31 0.27 99 1001.5